[[[{"header":{"parameterUnit":"kt","parameterCategory":2,"dx":1,"dy":1,"la1":30.253999710083008,"la2":30.299108505249023,"lo1":-89.0895004272461,"lo2":-89.04439544677734,"nx":28,"ny":28,"refTime":"2022-09-23T21:00:00:Z","depth":"0","parameterNumber":2,"parameterNumberName":"U-component_of_CURRENTS"},"data":[-0.17,-0.1587,-0.1493,-0.1298,-0.1216,-0.1116,-0.1078,-0.0996,-0.0984,-0.1027,-0.1217,-0.1369,-0.1759,-0.2391,-0.2649,-0.2617,-0.2408,-0.2443,-0.2074,-0.2189,-0.2152,-0.2116,-0.2332,-0.246,-0.2459,-0.2247,-0.2245,-0.2244,-0.1695,-0.1586,-0.1492,-0.1388,-0.131,-0.1333,-0.1307,-0.1267,-0.1208,-0.1243,-0.1233,-0.1568,-0.1824,-0.2057,-0.2459,-0.2422,-0.2432,-0.2227,-0.2281,-0.2192,-0.2237,-0.2477,-0.2638,-0.2638,-0.2638,-0.2638,-0.2638,-0.2638,-0.1666,-0.1615,-0.1534,-0.1477,-0.1449,-0.1413,-0.14,-0.1431,-0.1457,-0.1454,-0.1472,-0.1444,-0.1702,-0.1716,-0.1713,-0.1943,-0.1674,-0.1913,-0.1789,-0.1726,-0.1871,-0.2018,-0.1904,-0.19,-0.1896,-0.1893,-0.189,0,-0.1665,-0.1628,-0.1609,-0.1536,-0.1536,-0.156,-0.1615,-0.1636,-0.1765,-0.1773,-0.1697,-0.1638,-0.153,-0.157,-0.1455,-0.1383,-0.1362,-0.135,-0.1264,-0.1882,-0.1962,-0.1869,-0.1876,-0.1748,-0.1743,-0.1739,-0.1736,-0.1734,-0.1647,-0.164,-0.1626,-0.1607,-0.1623,-0.1687,-0.1732,-0.1889,-0.1933,-0.1966,-0.1921,-0.1766,-0.1687,-0.1298,-0.1322,-0.1126,-0.103,-0.1233,-0.1478,-0.1514,-0.1373,-0.1351,-0.1329,-0.1678,-0.1685,-0.1691,-0.1696,0,-0.1628,-0.1633,-0.1651,-0.1705,-0.1727,-0.177,-0.1892,-0.1952,-0.207,-0.2079,-0.2082,-0.2079,-0.1834,-0.1691,-0.1323,-0.1312,-0.1108,-0.1028,-0.1419,-0.1397,-0.1466,-0.1403,-0.1151,-0.1107,-0.0917,-0.0919,-0.092,0,-0.1618,-0.1653,-0.166,-0.1677,-0.1741,-0.1844,-0.1944,-0.2061,-0.2165,-0.2195,-0.2296,-0.2244,-0.2086,-0.1874,-0.1737,-0.1483,-0.1341,-0.1426,-0.1341,-0.1649,-0.1688,-0.1584,-0.1527,-0.1215,-0.1218,-0.1221,-0.1224,0,-0.1574,-0.1648,-0.1679,-0.1711,-0.1819,-0.1888,-0.1977,-0.2141,-0.2229,-0.2314,-0.2303,-0.2294,-0.2191,-0.2013,-0.184,-0.1898,-0.1444,-0.146,-0.1432,-0.1435,-0.1599,-0.163,-0.151,-0.1229,-0.123,-0.1231,-0.1232,0,-0.1576,-0.1586,-0.1653,-0.1732,-0.1763,-0.1849,-0.201,-0.2135,-0.2262,-0.2313,-0.2364,-0.2369,-0.2347,-0.2338,-0.2069,-0.2177,-0.2015,-0.1874,-0.1852,-0.1934,-0.1884,-0.1768,-0.1814,-0.1793,-0.1578,-0.1582,-0.1586,0,-0.1504,-0.1555,-0.1593,-0.1695,-0.1732,-0.182,-0.1961,-0.2082,-0.2167,-0.2231,-0.2281,-0.2348,-0.2417,-0.2426,-0.2364,-0.2214,-0.2109,-0.2309,-0.1812,-0.1797,-0.1856,-0.1877,-0.2208,-0.1868,-0.1641,-0.1635,-0.1631,0,-0.1447,-0.148,-0.1493,-0.151,-0.1617,-0.1671,-0.1836,-0.1963,-0.2027,-0.212,-0.2168,-0.237,-0.2334,-0.2402,-0.2446,-0.2357,-0.2191,-0.2284,-0.2273,-0.2034,-0.1784,-0.1931,-0.1906,-0.2118,-0.2114,-0.211,-0.1675,0,-0.1388,-0.1414,-0.1446,-0.15,-0.1566,-0.1627,-0.1718,-0.1805,-0.1847,-0.1897,-0.2026,-0.2093,-0.2185,-0.2257,-0.2313,-0.234,-0.2254,-0.2226,-0.2108,-0.2183,-0.1992,-0.1958,-0.2329,-0.2327,-0.2326,-0.2324,0,0,-0.1313,-0.1338,-0.1341,-0.1387,-0.1431,-0.1452,-0.1518,-0.1598,-0.1693,-0.1743,-0.1724,-0.1915,-0.1984,-0.2135,-0.2224,-0.2269,-0.2134,-0.2253,-0.2209,-0.2198,-0.2186,-0.2004,-0.1974,-0.2322,-0.2321,-0.232,-0.232,0,-0.1282,-0.1283,-0.1308,-0.135,-0.1392,-0.1429,-0.1445,-0.15,-0.1542,-0.167,-0.1681,-0.1759,-0.1929,-0.1989,-0.2048,-0.2236,-0.2074,-0.2299,-0.2366,-0.2202,-0.2192,-0.2183,-0.2003,-0.1977,-0.2316,-0.2316,-0.2316,0,-0.1224,-0.1229,-0.1239,-0.1285,-0.1313,-0.1381,-0.1335,-0.1388,-0.1466,-0.1443,-0.1571,-0.1616,-0.1708,-0.1857,-0.1922,-0.1886,-0.1974,-0.2063,-0.2075,-0.2053,-0.1875,-0.1869,-0.1863,-0.1906,-0.1904,-0.1902,0,0,-0.1198,-0.121,-0.1242,-0.128,-0.1299,-0.1324,-0.1355,-0.1357,-0.1411,-0.1432,-0.1478,-0.1553,-0.1654,-0.1708,-0.1791,-0.1933,-0.18,-0.201,-0.2029,-0.2045,-0.2033,-0.1862,-0.1859,-0.1896,-0.1896,-0.1896,0,0,-0.1191,-0.1198,-0.1184,-0.1225,-0.1271,-0.1313,-0.135,-0.1346,-0.1411,-0.14,-0.1422,-0.1438,-0.157,-0.1602,-0.1516,-0.1768,-0.1693,-0.1712,-0.1732,-0.1756,-0.1775,-0.1731,-0.1454,0,0,0,0,0,-0.1161,-0.1197,-0.1185,-0.1193,-0.1245,-0.132,-0.1332,-0.1333,-0.1297,-0.1333,-0.138,-0.1346,-0.1576,-0.15,-0.152,-0.1604,-0.1815,-0.1829,-0.1843,-0.1902,-0.1928,-0.1949,0,0,0,0,0,0,-0.1165,-0.1173,-0.1185,-0.1221,-0.1234,-0.1317,-0.1261,-0.1264,-0.1293,-0.1287,-0.1341,-0.1348,-0.1361,-0.1488,-0.1507,-0.1587,-0.1448,-0.182,-0.1833,-0.1844,-0.1911,-0.1932,-0.195,0,0,0,0,0,-0.1167,-0.1174,-0.1244,-0.1223,-0.1234,-0.1253,-0.1258,-0.126,-0.128,-0.1323,-0.1328,-0.1277,-0.1362,-0.1379,-0.1499,-0.1579,-0.1435,-0.1442,-0.1828,-0.1838,-0.1847,-0.1921,0,0,0,0,0,0,-0.117,-0.1186,-0.1248,-0.1254,-0.119,-0.1249,-0.1253,-0.1256,-0.1315,-0.132,-0.1261,-0.1256,-0.1364,-0.1377,-0.139,-0.1577,-0.1424,-0.1431,-0.1436,-0.1836,-0.1843,-0.185,0,0,0,0,0,0,-0.1184,-0.1191,-0.1251,-0.1209,-0.121,-0.1245,-0.1248,-0.1333,-0.1316,-0.1249,-0.1246,-0.1258,-0.1349,-0.1376,-0.1386,-0.1519,-0.1416,-0.1423,-0.1427,-0.1431,-0.1842,-0.1848,0,0,0,0,0,0,-0.1188,-0.1194,-0.1208,-0.1209,-0.1209,-0.1273,-0.1322,-0.1377,-0.1272,-0.1247,-0.1263,-0.1259,-0.1349,-0.1359,-0.1383,-0.1512,-0.1517,-0.1416,-0.1421,-0.1424,-0.1426,0,0,0,0,0,0,0,-0.1191,-0.1134,-0.1214,-0.1208,-0.1209,-0.1307,-0.1308,-0.131,-0.1271,-0.1267,-0.1264,-0.1261,-0.1376,-0.1384,-0.1392,-0.1506,0,0,-0.1415,-0.1419,0,0,0,0,0,0,0,0,-0.1133,-0.1134,-0.1214,-0.1216,-0.1217,-0.1307,-0.1308,-0.1309,-0.127,-0.1267,-0.1265,-0.1262,-0.1378,-0.1384,-0.1391,0,0,0,0,0,0,0,0,0,0,0,0,0,0,0,-0.1215,-0.1216,0,-0.1307,-0.1308,-0.1309,-0.127,-0.1267,-0.1265,-0.1263,-0.138,-0.1385,-0.139,0,0,0,0,0,0,0,0,0,0,0,0,0,0,0,0,0,0,0,0,0,0,0,0,0,0,0,0,0,0,0,0,0,0,0,0,0,0,0,0,0,0,0,0,0,0,0,0,0,0,0,0,0,0,0,0,0,0,0,0,0,0,0,0,0,0,0,0,0]}],[{"header":{"parameterUnit":"kt","parameterCategory":2,"dx":1,"dy":1,"la1":30.253999710083008,"la2":30.299108505249023,"lo1":-89.0895004272461,"lo2":-89.04439544677734,"nx":28,"ny":28,"refTime":"2022-09-23T21:00:00:Z","depth":"0","parameterNumber":3,"parameterNumberName":"V-component_of_CURRENTS"},"data":[-0.227,-0.2283,-0.2322,-0.2294,-0.2309,-0.2215,-0.2128,-0.1971,-0.1838,-0.1434,-0.1166,-0.1009,0.0001,0.1309,0.2064,0.2094,0.2282,0.2198,0.2162,0.2074,0.2017,0.1963,0.1975,0.2506,0.2507,0.2789,0.2792,0.2795,-0.2331,-0.2363,-0.2402,-0.2445,-0.2429,-0.2476,-0.2355,-0.2246,-0.1954,-0.17,-0.1318,-0.0675,-0.0069,0.044,0.1101,0.1262,0.1322,0.1368,0.1579,0.1603,0.1134,0.1121,0.1479,0.1479,0.1478,0.1478,0.1478,0.1477,-0.2428,-0.2442,-0.2512,-0.2557,-0.2578,-0.2536,-0.2475,-0.2369,-0.2132,-0.1681,-0.1345,-0.0907,-0.0255,-0.0015,0.0121,0.0565,0.0322,0.0667,0.0677,0.0641,0.0687,-0.0143,0.0183,0.018,0.0177,0.0175,0.0173,0,-0.2505,-0.255,-0.2593,-0.2653,-0.2672,-0.2671,-0.2631,-0.2527,-0.2309,-0.199,-0.1451,-0.1089,-0.0565,-0.0184,-0.0092,-0.0031,0.0223,0.0054,0.0366,0.0665,0.0533,0.061,-0.0105,0.0308,0.0305,0.0304,0.0302,0.0302,-0.258,-0.2605,-0.2705,-0.2726,-0.2759,-0.2768,-0.2747,-0.2668,-0.2526,-0.1988,-0.1768,-0.1245,-0.0859,-0.0403,-0.0248,-0.0136,-0.0034,0.0017,-0.0081,0.0064,0.0097,0.0057,0.0099,0.0278,0.0281,0.0283,0.0285,0,-0.2611,-0.2682,-0.2727,-0.279,-0.2807,-0.2807,-0.2768,-0.266,-0.2468,-0.2105,-0.1964,-0.1451,-0.1045,-0.0811,-0.0402,-0.0419,-0.0094,-0.0237,-0.0182,-0.0144,-0.0024,-0.0029,0.0407,0.0497,-0.0232,-0.0234,-0.0235,0,-0.2675,-0.2698,-0.2791,-0.2809,-0.2817,-0.2842,-0.2754,-0.2687,-0.2455,-0.221,-0.1955,-0.1605,-0.1241,-0.0922,-0.0863,-0.0632,-0.045,-0.0609,-0.057,-0.0412,-0.0423,-0.0061,-0.0046,-0.0315,-0.0317,-0.0318,-0.032,0,-0.2683,-0.276,-0.2799,-0.2819,-0.2852,-0.2846,-0.2843,-0.2679,-0.2581,-0.2236,-0.2029,-0.167,-0.1381,-0.1181,-0.0992,-0.106,-0.0559,-0.0594,-0.0662,-0.0678,-0.0377,-0.0382,0.0198,-0.0322,-0.0323,-0.0323,-0.0324,0,-0.272,-0.2768,-0.2816,-0.2852,-0.2857,-0.2862,-0.2762,-0.2729,-0.2466,-0.2354,-0.2078,-0.1878,-0.1569,-0.1621,-0.1209,-0.1336,-0.1249,-0.1121,-0.1106,-0.1177,-0.1246,-0.0872,-0.0645,-0.035,-0.1048,-0.1053,-0.1058,0,-0.2714,-0.2778,-0.2811,-0.284,-0.2866,-0.2855,-0.2823,-0.2745,-0.2634,-0.2436,-0.2215,-0.2002,-0.2051,-0.1921,-0.1752,-0.1527,-0.1403,-0.1603,-0.119,-0.118,-0.133,-0.1169,-0.0959,-0.0737,-0.1125,-0.1118,-0.1113,0,-0.2704,-0.279,-0.2793,-0.2817,-0.2838,-0.2838,-0.2813,-0.2742,-0.2646,-0.2558,-0.2355,-0.2216,-0.2094,-0.1997,-0.1902,-0.1727,-0.1528,-0.1728,-0.1714,-0.1659,-0.1101,-0.1251,-0.1221,-0.142,-0.1411,-0.1403,-0.1167,0,-0.2747,-0.2777,-0.2789,-0.2819,-0.2822,-0.2831,-0.2812,-0.2785,-0.2748,-0.267,-0.2475,-0.2349,-0.2158,-0.2131,-0.2118,-0.1868,-0.1892,-0.1836,-0.1812,-0.1715,-0.164,-0.1598,-0.2082,-0.2082,-0.2081,-0.208,0,0,-0.2723,-0.276,-0.277,-0.2796,-0.2802,-0.2783,-0.2795,-0.276,-0.2711,-0.2644,-0.2664,-0.2386,-0.2324,-0.2099,-0.2103,-0.208,-0.1988,-0.2077,-0.1801,-0.1772,-0.1743,-0.1664,-0.1625,-0.2079,-0.2079,-0.2079,-0.2079,0,-0.2739,-0.275,-0.277,-0.278,-0.279,-0.2776,-0.2778,-0.2757,-0.2721,-0.2674,-0.2582,-0.2457,-0.2368,-0.2234,-0.216,-0.2092,-0.1997,-0.2084,-0.2045,-0.1806,-0.1777,-0.175,-0.1669,-0.1634,-0.2077,-0.2077,-0.2077,0,-0.2736,-0.2753,-0.2758,-0.2774,-0.2765,-0.277,-0.274,-0.2732,-0.2712,-0.2632,-0.2574,-0.2488,-0.2367,-0.2274,-0.2226,-0.2223,-0.1995,-0.2114,-0.2115,-0.2073,-0.1822,-0.1791,-0.1764,-0.2111,-0.2111,-0.2112,0,0,-0.2744,-0.2762,-0.2769,-0.2775,-0.2781,-0.2752,-0.2741,-0.2721,-0.2674,-0.2645,-0.2581,-0.2487,-0.2387,-0.2337,-0.2258,-0.2181,-0.2071,-0.2123,-0.2121,-0.2121,-0.208,-0.1831,-0.1802,-0.2114,-0.2114,-0.2114,0,0,-0.2736,-0.2757,-0.2755,-0.2767,-0.2764,-0.2734,-0.2725,-0.27,-0.2637,-0.262,-0.2538,-0.2514,-0.2424,-0.237,-0.2411,-0.2238,-0.2237,-0.2228,-0.2287,-0.2284,-0.2282,-0.2254,-0.2357,0,0,0,0,0,-0.2753,-0.2764,-0.2763,-0.2765,-0.2749,-0.2745,-0.2738,-0.27,-0.2672,-0.2664,-0.259,-0.2546,-0.2364,-0.24,-0.2378,-0.2326,-0.2143,-0.2138,-0.2133,-0.2189,-0.2186,-0.2184,0,0,0,0,0,0,-0.2754,-0.2758,-0.2762,-0.2742,-0.2738,-0.2744,-0.2705,-0.2693,-0.2671,-0.2664,-0.2562,-0.2543,-0.2488,-0.2406,-0.2388,-0.2339,-0.2363,-0.2141,-0.2137,-0.2133,-0.2188,-0.2186,-0.2184,0,0,0,0,0,-0.2755,-0.2758,-0.275,-0.2739,-0.2736,-0.2696,-0.2704,-0.2694,-0.2661,-0.2587,-0.2568,-0.2636,-0.249,-0.2469,-0.2395,-0.2348,-0.2375,-0.2369,-0.2138,-0.2135,-0.2132,-0.2187,0,0,0,0,0,0,-0.2755,-0.2725,-0.2747,-0.2744,-0.2736,-0.2693,-0.2687,-0.2694,-0.2581,-0.2567,-0.2658,-0.2653,-0.2491,-0.2474,-0.2459,-0.2354,-0.2385,-0.2378,-0.2374,-0.2136,-0.2133,-0.2131,0,0,0,0,0,0,-0.2724,-0.2722,-0.2745,-0.2743,-0.2738,-0.269,-0.2685,-0.2621,-0.2578,-0.2654,-0.265,-0.2657,-0.2502,-0.2479,-0.2466,-0.2367,-0.2393,-0.2386,-0.2382,-0.2379,-0.2133,-0.2131,0,0,0,0,0,0,-0.2722,-0.272,-0.2743,-0.2739,-0.2735,-0.2684,-0.2627,-0.2598,-0.2626,-0.2657,-0.2624,-0.2623,-0.2506,-0.2493,-0.2471,-0.2378,-0.237,-0.2393,-0.2388,-0.2385,-0.2383,0,0,0,0,0,0,0,-0.272,-0.2747,-0.278,-0.2736,-0.2732,-0.2714,-0.2711,-0.2709,-0.2626,-0.2625,-0.2624,-0.2623,-0.2429,-0.2422,-0.2415,-0.2388,0,0,-0.2393,-0.239,0,0,0,0,0,0,0,0,-0.2746,-0.2747,-0.278,-0.278,-0.278,-0.2713,-0.2712,-0.271,-0.2626,-0.2625,-0.2624,-0.2624,-0.2427,-0.2421,-0.2416,0,0,0,0,0,0,0,0,0,0,0,0,0,0,0,-0.278,-0.278,0,-0.2713,-0.2712,-0.271,-0.2626,-0.2625,-0.2625,-0.2624,-0.2426,-0.2421,-0.2416,0,0,0,0,0,0,0,0,0,0,0,0,0,0,0,0,0,0,0,0,0,0,0,0,0,0,0,0,0,0,0,0,0,0,0,0,0,0,0,0,0,0,0,0,0,0,0,0,0,0,0,0,0,0,0,0,0,0,0,0,0,0,0,0,0,0,0,0,0]}]],[[{"header":{"parameterUnit":"kt","parameterCategory":2,"dx":1,"dy":1,"la1":30.253999710083008,"la2":30.299108505249023,"lo1":-89.0895004272461,"lo2":-89.04439544677734,"nx":28,"ny":28,"refTime":"2022-09-23T21:00:00:Z","depth":"2","parameterNumber":2,"parameterNumberName":"U-component_of_CURRENTS"},"data":[-0.1642,-0.1642,-0.1683,-0.1641,-0.1653,-0.1575,-0.1522,-0.1501,-0.1558,-0.1586,-0.1582,-0.1859,-0.1636,-0.1409,-0.1294,-0.1071,-0.1083,-0.1018,-0.1262,-0.1262,-0.1277,-0.1165,-0.1294,0,0,0,0,0,-0.1716,-0.1751,-0.1789,-0.1814,-0.1798,-0.1833,-0.1787,-0.1733,-0.1696,-0.1844,-0.1892,-0.166,-0.1608,-0.1413,-0.1166,-0.1164,-0.1138,-0.105,-0.1019,-0.1035,-0.1049,-0.112,-0.0895,-0.0894,-0.0894,-0.0893,0,0,-0.1838,-0.1855,-0.1906,-0.193,-0.1948,-0.1929,-0.1881,-0.189,-0.1859,-0.1853,-0.1909,-0.1854,-0.1818,-0.1573,-0.1415,-0.1217,-0.1327,-0.1256,-0.126,-0.1267,-0.1349,-0.1351,-0.1186,-0.1187,-0.1188,-0.1189,-0.119,0,-0.1927,-0.1948,-0.1993,-0.2038,-0.2041,-0.2048,-0.2035,-0.1997,-0.199,-0.1973,-0.195,-0.1937,-0.1801,-0.1684,-0.1492,-0.1392,-0.1358,-0.128,-0.1397,-0.1405,-0.14,-0.1389,-0.1408,-0.1238,-0.1239,-0.124,-0.1241,-0.1242,-0.1991,-0.2014,-0.2098,-0.2111,-0.214,-0.2148,-0.2137,-0.2145,-0.2113,-0.2078,-0.2032,-0.193,-0.1893,-0.1692,-0.1629,-0.1463,-0.1459,-0.1308,-0.1459,-0.161,-0.1595,-0.161,-0.1624,-0.1258,-0.1256,-0.1254,-0.1253,0,-0.2016,-0.2087,-0.2133,-0.2209,-0.222,-0.2219,-0.2219,-0.2195,-0.2182,-0.2125,-0.2098,-0.2083,-0.1963,-0.185,-0.1707,-0.1715,-0.1594,-0.1539,-0.1441,-0.141,-0.1619,-0.1633,-0.1478,-0.1478,-0.1477,-0.1477,-0.1476,0,-0.2087,-0.2107,-0.2206,-0.223,-0.2241,-0.2292,-0.227,-0.2281,-0.2253,-0.2215,-0.222,-0.2165,-0.2113,-0.1995,-0.1918,-0.179,-0.1752,-0.178,-0.175,-0.1687,-0.1684,-0.1808,-0.1816,-0.1753,-0.1755,-0.1757,-0.1759,0,-0.2104,-0.2189,-0.2233,-0.226,-0.2332,-0.2331,-0.2345,-0.2352,-0.2333,-0.2305,-0.2264,-0.2215,-0.2146,-0.2075,-0.1964,-0.202,-0.1806,-0.1871,-0.1802,-0.1799,-0.1677,-0.1669,-0.1761,-0.1761,-0.1762,-0.1763,-0.1763,0,-0.216,-0.2216,-0.2273,-0.2329,-0.2337,-0.2353,-0.2355,-0.2372,-0.2361,-0.2344,-0.2311,-0.2274,-0.2215,-0.2218,-0.2092,-0.2147,-0.2062,-0.2013,-0.2002,-0.2011,-0.2003,-0.173,-0.1656,-0.1858,-0.186,-0.1862,-0.1863,0,-0.2171,-0.2239,-0.228,-0.2318,-0.2353,-0.2376,-0.2386,-0.2404,-0.2402,-0.2377,-0.2344,-0.2297,-0.23,-0.2252,-0.2235,-0.2167,-0.2105,-0.2199,-0.2001,-0.1993,-0.2028,-0.1997,-0.1912,-0.1691,-0.1888,-0.1885,-0.1884,0,-0.2172,-0.2264,-0.2258,-0.2284,-0.2335,-0.2352,-0.2373,-0.2398,-0.238,-0.2381,-0.2351,-0.2329,-0.2292,-0.2268,-0.2236,-0.221,-0.2137,-0.2186,-0.2182,-0.2082,-0.1989,-0.2023,-0.2009,-0.2155,-0.2154,-0.2153,-0.1903,0,-0.2252,-0.2266,-0.2269,-0.2306,-0.2327,-0.2347,-0.2377,-0.2378,-0.2362,-0.2368,-0.2335,-0.2303,-0.226,-0.2257,-0.2243,-0.2208,-0.2158,-0.2179,-0.2161,-0.2162,-0.2047,-0.2032,-0.2198,-0.2197,-0.2197,-0.2196,0,0,-0.2236,-0.226,-0.2269,-0.2296,-0.2312,-0.2318,-0.2344,-0.2347,-0.2353,-0.2345,-0.2327,-0.227,-0.225,-0.2218,-0.2221,-0.2214,-0.2156,-0.2196,-0.2167,-0.2164,-0.2161,-0.2053,-0.204,-0.2195,-0.2195,-0.2195,-0.2194,0,-0.227,-0.2257,-0.2262,-0.2289,-0.2311,-0.2325,-0.2327,-0.2344,-0.2329,-0.2333,-0.2293,-0.2265,-0.2241,-0.2217,-0.2201,-0.2208,-0.2144,-0.2195,-0.2202,-0.2163,-0.2161,-0.2159,-0.2053,-0.2041,-0.2193,-0.2193,-0.2193,0,-0.2286,-0.2297,-0.2291,-0.2318,-0.2318,-0.2345,-0.2325,-0.2328,-0.2338,-0.2296,-0.2274,-0.2248,-0.2215,-0.2202,-0.2189,-0.218,-0.2124,-0.2165,-0.2168,-0.2158,-0.2116,-0.2114,-0.2112,-0.2133,-0.2133,-0.2133,0,0,-0.2306,-0.2302,-0.2336,-0.2325,-0.2334,-0.2335,-0.2333,-0.2328,-0.2316,-0.2298,-0.2273,-0.2236,-0.2214,-0.2196,-0.2179,-0.2171,-0.2121,-0.216,-0.2163,-0.2165,-0.2157,-0.2116,-0.2114,-0.2133,-0.2133,-0.2133,0,0,-0.2313,-0.2335,-0.2329,-0.2322,-0.2345,-0.2357,-0.234,-0.2333,-0.2302,-0.2275,-0.2244,-0.2234,-0.2211,-0.2191,-0.2196,-0.2167,-0.2152,-0.2151,-0.2186,-0.2189,-0.2192,-0.2187,-0.2166,0,0,0,0,0,-0.235,-0.2342,-0.2337,-0.2338,-0.2337,-0.2369,-0.2368,-0.2339,-0.2301,-0.23,-0.2261,-0.2235,-0.2185,-0.2189,-0.2184,-0.2179,-0.2134,-0.2134,-0.2134,-0.2176,-0.218,-0.2183,0,0,0,0,0,0,-0.235,-0.2352,-0.2337,-0.2351,-0.2351,-0.2367,-0.2328,-0.232,-0.23,-0.2292,-0.2245,-0.2235,-0.2216,-0.219,-0.2186,-0.2182,-0.2167,-0.2134,-0.2134,-0.2134,-0.2177,-0.218,-0.2183,0,0,0,0,0,-0.2351,-0.2353,-0.2355,-0.235,-0.235,-0.2325,-0.2325,-0.2319,-0.2289,-0.2269,-0.2258,-0.2265,-0.2219,-0.2211,-0.2187,-0.2184,-0.217,-0.2168,-0.2134,-0.2134,-0.2134,-0.2179,0,0,0,0,0,0,-0.2352,-0.2341,-0.2354,-0.2354,-0.2333,-0.2322,-0.2318,-0.2318,-0.2265,-0.2257,-0.2291,-0.2286,-0.2221,-0.2214,-0.2209,-0.2186,-0.2172,-0.217,-0.2169,-0.2134,-0.2134,-0.2133,0,0,0,0,0,0,-0.234,-0.234,-0.2354,-0.2333,-0.2329,-0.232,-0.2316,-0.2309,-0.2263,-0.2287,-0.2283,-0.2289,-0.222,-0.2217,-0.2212,-0.2203,-0.2173,-0.2172,-0.2171,-0.217,-0.2134,-0.2134,0,0,0,0,0,0,-0.234,-0.234,-0.2332,-0.233,-0.2326,-0.2315,-0.2311,-0.2301,-0.2275,-0.2289,-0.2269,-0.2267,-0.2223,-0.2218,-0.2215,-0.2208,-0.2204,-0.2173,-0.2172,-0.2172,-0.2171,0,0,0,0,0,0,0,-0.234,-0.2344,-0.2363,-0.2327,-0.2324,-0.2351,-0.235,-0.2349,-0.2274,-0.2272,-0.227,-0.2268,-0.2181,-0.218,-0.2178,-0.2212,0,0,-0.2173,-0.2173,0,0,0,0,0,0,0,0,-0.2343,-0.2344,-0.2363,-0.2363,-0.2363,-0.2351,-0.235,-0.235,-0.2274,-0.2272,-0.227,-0.2269,-0.2181,-0.2179,-0.2178,0,0,0,0,0,0,0,0,0,0,0,0,0,0,0,-0.2363,-0.2363,0,-0.2351,-0.235,-0.235,-0.2274,-0.2272,-0.2271,-0.2269,-0.218,-0.2179,-0.2178,0,0,0,0,0,0,0,0,0,0,0,0,0,0,0,0,0,0,0,0,0,0,0,0,0,0,0,0,0,0,0,0,0,0,0,0,0,0,0,0,0,0,0,0,0,0,0,0,0,0,0,0,0,0,0,0,0,0,0,0,0,0,0,0,0,0,0,0,0]}],[{"header":{"parameterUnit":"kt","parameterCategory":2,"dx":1,"dy":1,"la1":30.253999710083008,"la2":30.299108505249023,"lo1":-89.0895004272461,"lo2":-89.04439544677734,"nx":28,"ny":28,"refTime":"2022-09-23T21:00:00:Z","depth":"2","parameterNumber":3,"parameterNumberName":"V-component_of_CURRENTS"},"data":[-0.0171,-0.0306,-0.0384,-0.0627,-0.0773,-0.0941,-0.0998,-0.0991,-0.0897,-0.0718,-0.0521,-0.0069,0.0339,0.0478,0.0739,0.0814,0.0773,0.0829,0.1014,0.0676,0.066,0.0802,0.0733,0,0,0,0,0,-0.0134,-0.0228,-0.0384,-0.058,-0.0735,-0.0827,-0.0953,-0.098,-0.098,-0.0826,-0.0596,-0.0138,0.0295,0.0619,0.0958,0.121,0.1126,0.1119,0.0869,0.0856,0.0845,0.0806,0.0971,0.097,0.097,0.097,0,0,-0.0079,-0.0156,-0.0299,-0.0476,-0.0635,-0.0773,-0.0854,-0.0934,-0.0974,-0.0898,-0.0639,-0.0309,0.0078,0.0759,0.0995,0.1162,0.1198,0.106,0.1043,0.1027,0.101,0.1002,0.1223,0.1224,0.1225,0.1226,0.1227,0,-0.0036,-0.0103,-0.0197,-0.0387,-0.0527,-0.066,-0.0799,-0.0851,-0.0903,-0.0882,-0.0706,-0.0489,0.0071,0.0451,0.0874,0.1019,0.0847,0.0946,0.0914,0.0608,0.0584,0.0621,0.0606,0.073,0.0729,0.0728,0.0727,0.0726,0.0019,-0.0049,-0.0212,-0.0303,-0.0373,-0.0524,-0.0628,-0.0708,-0.0784,-0.0718,-0.0712,-0.0458,-0.0227,0.0282,0.0595,0.0903,0.0773,0.0893,0.0809,0.0745,0.079,0.0771,0.0755,0.071,0.0712,0.0714,0.0715,0,0.0049,-0.0004,-0.0125,-0.0246,-0.0296,-0.0401,-0.0544,-0.0638,-0.0668,-0.0715,-0.072,-0.0553,-0.0278,-0.007,0.0205,0.0341,0.057,0.0661,0.0524,0.0574,0.0725,0.0716,0.0905,0.0912,0.0918,0.0923,0.0927,0,0.01,0.0019,-0.0068,-0.0126,-0.026,-0.0297,-0.0443,-0.0485,-0.0543,-0.0597,-0.0552,-0.0506,-0.0321,-0.0142,-0.0008,0.0291,0.0233,0.0438,0.0505,0.0382,0.0387,0.0307,0.0305,0.0307,0.0306,0.0305,0.0304,0,0.0175,0.0077,-0.0018,-0.005,-0.0136,-0.0208,-0.0266,-0.0335,-0.0396,-0.0431,-0.0444,-0.0396,-0.0331,-0.0214,-0.001,-0.0044,0.0233,0.0218,0.0434,0.0447,0.0418,0.0428,0.0302,0.0302,0.0302,0.0301,0.0301,0,0.0237,0.0183,0.0078,-0.0013,-0.0042,-0.01,-0.0209,-0.0256,-0.0293,-0.0315,-0.0336,-0.0307,-0.0262,-0.0222,-0.0054,-0.0094,-0.0007,0.0098,0.0107,0.0298,0.037,0.0404,0.0411,0.0239,0.0238,0.0237,0.0235,0,0.0306,0.0218,0.0212,0.011,0.0055,0.0039,-0.0016,-0.0062,-0.0097,-0.014,-0.0114,-0.0159,-0.0133,-0.0161,-0.0113,0.0007,0.0037,-0.0026,0.0187,0.0193,0.0344,0.0357,0.0245,0.0387,0.022,0.0222,0.0223,0,0.037,0.0319,0.0301,0.0251,0.021,0.0177,0.0124,0.0066,0.0003,-0.0002,-0.0059,-0.0081,-0.0082,-0.0086,-0.007,-0.0021,0.0018,0.0029,0.0035,0.0099,0.0157,0.0316,0.0343,0.0053,0.0054,0.0055,0.021,0,0.0414,0.0372,0.0349,0.0298,0.0275,0.023,0.0212,0.0176,0.0148,0.0129,0.0075,0.0092,0.0055,0.0057,0.0063,0.0043,0.0084,0.0116,0.0162,0.0118,0.0193,0.0202,0.0122,0.0124,0.0125,0.0127,0,0,0.0465,0.0426,0.0431,0.0393,0.036,0.036,0.031,0.0296,0.0261,0.0227,0.0235,0.0192,0.0199,0.0153,0.0118,0.0134,0.0183,0.0123,0.0128,0.0128,0.0128,0.0197,0.0204,0.013,0.013,0.0131,0.0131,0,0.0485,0.0474,0.0442,0.0425,0.039,0.0383,0.0366,0.034,0.0312,0.0273,0.0271,0.0247,0.023,0.0221,0.0216,0.0157,0.0223,0.0147,0.0079,0.014,0.0137,0.0135,0.0202,0.0207,0.0135,0.0135,0.0135,0,0.0516,0.0501,0.0489,0.0467,0.0447,0.0417,0.0426,0.0391,0.0355,0.0381,0.032,0.0321,0.0327,0.0289,0.0274,0.0293,0.0273,0.0253,0.0245,0.0243,0.0309,0.0305,0.0301,0.0352,0.0353,0.0353,0,0,0.0524,0.0503,0.0492,0.047,0.0457,0.044,0.0426,0.0408,0.039,0.0374,0.0365,0.0352,0.034,0.0326,0.0327,0.0302,0.0359,0.0276,0.0266,0.0257,0.025,0.0313,0.0309,0.0355,0.0355,0.0355,0,0,0.0528,0.051,0.0501,0.0479,0.0463,0.0454,0.043,0.0419,0.0393,0.0374,0.0384,0.0382,0.0344,0.0362,0.0381,0.0325,0.0371,0.0368,0.03,0.0288,0.0279,0.0267,0.0409,0,0,0,0,0,0.0532,0.0517,0.0508,0.0503,0.0478,0.0464,0.046,0.0434,0.0416,0.0399,0.038,0.0397,0.0366,0.0383,0.0386,0.0345,0.0376,0.0372,0.0368,0.0277,0.0264,0.0253,0,0,0,0,0,0,0.053,0.0524,0.0509,0.0501,0.0495,0.0465,0.0456,0.045,0.0416,0.041,0.0399,0.0398,0.0409,0.0383,0.0386,0.0345,0.0408,0.0374,0.0371,0.0368,0.0272,0.0262,0.0252,0,0,0,0,0,0.0528,0.0524,0.0486,0.0501,0.0496,0.0464,0.0455,0.0449,0.0416,0.0426,0.0422,0.0391,0.041,0.0411,0.0385,0.0342,0.0406,0.0407,0.0372,0.037,0.0367,0.0267,0,0,0,0,0,0,0.0527,0.0524,0.0485,0.0483,0.0489,0.0463,0.0457,0.0449,0.0433,0.0429,0.0422,0.0419,0.0411,0.0411,0.0412,0.0339,0.0405,0.0406,0.0406,0.037,0.0368,0.0367,0,0,0,0,0,0,0.0526,0.0522,0.0484,0.0469,0.0465,0.0463,0.0458,0.0472,0.0434,0.0431,0.0427,0.0421,0.0413,0.0412,0.0412,0.0436,0.0404,0.0405,0.0405,0.0406,0.0369,0.0367,0,0,0,0,0,0,0.0524,0.0521,0.047,0.0467,0.0463,0.0438,0.0477,0.0454,0.0413,0.0433,0.0409,0.0407,0.0414,0.0414,0.0413,0.0437,0.0436,0.0404,0.0404,0.0405,0.0405,0,0,0,0,0,0,0,0.0523,0.0547,0.0496,0.0465,0.0461,0.0462,0.0462,0.0462,0.0412,0.0411,0.0409,0.0408,0.0398,0.0399,0.04,0.0437,0,0,0.0404,0.0404,0,0,0,0,0,0,0,0,0.0548,0.0547,0.0495,0.0495,0.0494,0.0462,0.0462,0.0462,0.0412,0.0411,0.041,0.0409,0.0399,0.04,0.04,0,0,0,0,0,0,0,0,0,0,0,0,0,0,0,0.0495,0.0495,0,0.0462,0.0462,0.0462,0.0412,0.0411,0.041,0.0409,0.0399,0.04,0.04,0,0,0,0,0,0,0,0,0,0,0,0,0,0,0,0,0,0,0,0,0,0,0,0,0,0,0,0,0,0,0,0,0,0,0,0,0,0,0,0,0,0,0,0,0,0,0,0,0,0,0,0,0,0,0,0,0,0,0,0,0,0,0,0,0,0,0,0,0]}]],[[{"header":{"parameterUnit":"kt","parameterCategory":2,"dx":1,"dy":1,"la1":30.253999710083008,"la2":30.299108505249023,"lo1":-89.0895004272461,"lo2":-89.04439544677734,"nx":28,"ny":28,"refTime":"2022-09-23T21:00:00:Z","depth":"4","parameterNumber":2,"parameterNumberName":"U-component_of_CURRENTS"},"data":[-0.0931,-0.0933,-0.0928,-0.0791,-0.0742,-0.0726,-0.0792,-0.0905,-0.0818,-0.1026,-0.0971,-0.1175,-0.1117,-0.1258,-0.1141,-0.1161,-0.1353,-0.1336,-0.1333,-0.1745,-0.1776,-0.1804,-0.1793,0,0,0,0,0,-0.1002,-0.0973,-0.098,-0.0957,-0.0992,-0.101,-0.1095,-0.1175,-0.1354,-0.1244,-0.1441,-0.1279,-0.1272,-0.1209,-0.1191,-0.1299,-0.1541,-0.1271,-0.1616,-0.1765,-0.1799,-0.1777,0,0,0,0,0,0,-0.109,-0.1081,-0.1122,-0.1154,-0.1202,-0.1162,-0.1245,-0.1246,-0.1387,-0.1737,-0.1485,-0.1628,-0.1699,-0.1624,-0.1528,-0.159,-0.1533,-0.1578,-0.162,-0.1655,-0.1602,-0.1574,-0.1123,0,0,0,0,0,-0.1163,-0.1213,-0.1244,-0.1286,-0.1349,-0.1382,-0.1466,-0.1554,-0.1817,-0.2163,-0.2049,-0.2082,-0.1944,-0.1864,-0.1951,-0.1808,-0.2238,-0.2073,-0.209,-0.2102,-0.2118,-0.2004,-0.2023,-0.1929,-0.1934,-0.1936,-0.1938,0,-0.1264,-0.1271,-0.1378,-0.1397,-0.1457,-0.1564,-0.1627,-0.1962,-0.2059,-0.2353,-0.2385,-0.2475,-0.2563,-0.2241,-0.228,-0.2199,-0.2149,-0.2164,-0.2177,-0.2175,-0.205,-0.2061,-0.207,-0.1966,-0.1964,-0.1961,-0.1959,0,-0.1306,-0.1373,-0.1411,-0.1528,-0.1568,-0.1627,-0.1846,-0.197,-0.2352,-0.2583,-0.2743,-0.3002,-0.285,-0.2976,-0.2802,-0.2718,-0.2517,-0.2387,-0.2757,-0.2629,-0.212,-0.2118,-0.2011,-0.2001,-0.1993,-0.1985,-0.1979,0,-0.1391,-0.142,-0.1522,-0.1539,-0.1601,-0.171,-0.1856,-0.2047,-0.2385,-0.2507,-0.2934,-0.3021,-0.3208,-0.3153,-0.3052,-0.2762,-0.2877,-0.2548,-0.2408,-0.2711,-0.2707,-0.2638,-0.2624,-0.2763,-0.2764,-0.2764,-0.2765,0,-0.1427,-0.15,-0.1539,-0.1566,-0.1662,-0.1728,-0.1808,-0.2009,-0.2142,-0.2585,-0.2786,-0.3034,-0.3215,-0.3128,-0.3032,-0.3008,-0.2891,-0.2795,-0.2466,-0.2444,-0.2638,-0.2623,-0.2766,-0.2766,-0.2767,-0.2767,-0.2767,0,-0.1487,-0.1518,-0.1565,-0.1644,-0.1663,-0.1718,-0.188,-0.1959,-0.2218,-0.2384,-0.2689,-0.2807,-0.3095,-0.3058,-0.3048,-0.3023,-0.292,-0.2833,-0.2821,-0.2534,-0.2299,-0.245,-0.2583,-0.2583,-0.2582,-0.2582,-0.2582,0,-0.1499,-0.154,-0.1584,-0.1635,-0.1651,-0.1727,-0.1791,-0.1884,-0.2006,-0.2201,-0.2419,-0.2617,-0.2647,-0.2835,-0.2894,-0.2828,-0.2865,-0.2887,-0.2563,-0.2557,-0.2315,-0.2378,-0.2695,-0.2576,-0.2577,-0.2577,-0.2578,0,-0.1494,-0.1558,-0.1567,-0.1588,-0.166,-0.1682,-0.1762,-0.1841,-0.1938,-0.2042,-0.2233,-0.2416,-0.2566,-0.2639,-0.2754,-0.28,-0.2845,-0.2664,-0.2655,-0.2621,-0.2666,-0.24,-0.2377,-0.2683,-0.2685,-0.2687,-0.2574,0,-0.1515,-0.1542,-0.1561,-0.1595,-0.1631,-0.1671,-0.1709,-0.1768,-0.1805,-0.1849,-0.2024,-0.2155,-0.2315,-0.2349,-0.2388,-0.2569,-0.245,-0.2341,-0.2324,-0.243,-0.2357,-0.2362,-0.2264,-0.226,-0.2257,-0.2255,0,0,-0.1496,-0.1512,-0.1535,-0.1558,-0.1582,-0.1613,-0.164,-0.1677,-0.173,-0.1779,-0.1763,-0.1943,-0.2001,-0.2215,-0.2295,-0.2252,-0.2158,-0.2336,-0.2372,-0.2385,-0.2397,-0.2336,-0.2343,-0.225,-0.2249,-0.2248,-0.2247,0,-0.1484,-0.1506,-0.1522,-0.1545,-0.1581,-0.1592,-0.161,-0.164,-0.1674,-0.173,-0.1741,-0.1878,-0.1897,-0.2021,-0.2063,-0.2195,-0.2103,-0.2166,-0.2414,-0.2347,-0.2365,-0.238,-0.2323,-0.2332,-0.224,-0.2241,-0.2241,0,-0.1463,-0.1471,-0.1481,-0.1503,-0.1521,-0.1542,-0.1535,-0.158,-0.1611,-0.1611,-0.168,-0.171,-0.1743,-0.1852,-0.1899,-0.1901,-0.2063,-0.2041,-0.2055,-0.2134,-0.2062,-0.2083,-0.2101,-0.1868,-0.1867,-0.1867,0,0,-0.1453,-0.1473,-0.1474,-0.1496,-0.1506,-0.1521,-0.1539,-0.1556,-0.1582,-0.1604,-0.1635,-0.1678,-0.1719,-0.1788,-0.1794,-0.1922,-0.1873,-0.2002,-0.202,-0.2035,-0.212,-0.2054,-0.2074,-0.1864,-0.1864,-0.1864,0,0,-0.1444,-0.1445,-0.1448,-0.1464,-0.1486,-0.1492,-0.1521,-0.1529,-0.1575,-0.1591,-0.1601,-0.1613,-0.169,-0.1707,-0.1671,-0.1851,-0.1768,-0.1776,-0.1891,-0.1913,-0.1929,-0.2028,-0.1664,0,0,0,0,0,-0.1425,-0.1441,-0.1443,-0.1445,-0.1463,-0.1487,-0.1494,-0.1509,-0.1513,-0.1545,-0.1571,-0.1578,-0.1692,-0.166,-0.1673,-0.1789,-0.1833,-0.1838,-0.1844,-0.2011,-0.2034,-0.2053,0,0,0,0,0,0,-0.1426,-0.1427,-0.1443,-0.1444,-0.1448,-0.1486,-0.147,-0.1476,-0.1511,-0.1514,-0.157,-0.1578,-0.1587,-0.1655,-0.1666,-0.1778,-0.166,-0.1835,-0.184,-0.1844,-0.2019,-0.2038,-0.2053,0,0,0,0,0,-0.1426,-0.1427,-0.1449,-0.1445,-0.1449,-0.1469,-0.1471,-0.1475,-0.1516,-0.1534,-0.1544,-0.1529,-0.1586,-0.1599,-0.1662,-0.1774,-0.1652,-0.1656,-0.1838,-0.1842,-0.1845,-0.2028,0,0,0,0,0,0,-0.1426,-0.1441,-0.145,-0.1453,-0.1443,-0.1469,-0.1473,-0.1474,-0.1536,-0.1543,-0.1491,-0.1493,-0.1585,-0.1595,-0.1605,-0.1774,-0.1646,-0.165,-0.1653,-0.1841,-0.1844,-0.1847,0,0,0,0,0,0,-0.1441,-0.1443,-0.1452,-0.1448,-0.145,-0.147,-0.1473,-0.1516,-0.1538,-0.1491,-0.1493,-0.1491,-0.158,-0.1593,-0.1601,-0.1667,-0.1641,-0.1645,-0.1648,-0.165,-0.1843,-0.1846,0,0,0,0,0,0,-0.1442,-0.1444,-0.1448,-0.1449,-0.1451,-0.1481,-0.1511,-0.1537,-0.1506,-0.149,-0.1506,-0.1506,-0.1578,-0.1586,-0.1598,-0.166,-0.1665,-0.1641,-0.1644,-0.1646,-0.1647,0,0,0,0,0,0,0,-0.1444,-0.1422,-0.1432,-0.1451,-0.1453,-0.1472,-0.1473,-0.1474,-0.1506,-0.1506,-0.1506,-0.1506,-0.1618,-0.1623,-0.1627,-0.1655,0,0,-0.1641,-0.1643,0,0,0,0,0,0,0,0,-0.1422,-0.1422,-0.1432,-0.1432,-0.1433,-0.1472,-0.1473,-0.1474,-0.1506,-0.1506,-0.1506,-0.1506,-0.1619,-0.1623,-0.1627,0,0,0,0,0,0,0,0,0,0,0,0,0,0,0,-0.1432,-0.1432,0,-0.1472,-0.1473,-0.1474,-0.1506,-0.1506,-0.1506,-0.1506,-0.162,-0.1623,-0.1626,0,0,0,0,0,0,0,0,0,0,0,0,0,0,0,0,0,0,0,0,0,0,0,0,0,0,0,0,0,0,0,0,0,0,0,0,0,0,0,0,0,0,0,0,0,0,0,0,0,0,0,0,0,0,0,0,0,0,0,0,0,0,0,0,0,0,0,0,0]}],[{"header":{"parameterUnit":"kt","parameterCategory":2,"dx":1,"dy":1,"la1":30.253999710083008,"la2":30.299108505249023,"lo1":-89.0895004272461,"lo2":-89.04439544677734,"nx":28,"ny":28,"refTime":"2022-09-23T21:00:00:Z","depth":"4","parameterNumber":3,"parameterNumberName":"V-component_of_CURRENTS"},"data":[-0.0324,-0.0417,-0.046,-0.0627,-0.0724,-0.0886,-0.0967,-0.0996,-0.0947,-0.0964,-0.0795,-0.0777,-0.0482,-0.0662,-0.0222,-0.0174,0.0249,0.0126,0.0131,0.0855,0.0886,0.0913,0.066,0,0,0,0,0,-0.0285,-0.0346,-0.0473,-0.0608,-0.0764,-0.0841,-0.0981,-0.1015,-0.106,-0.1021,-0.0998,-0.0846,-0.0571,-0.0466,-0.0241,-0.0254,0.0336,0.001,0.0625,0.0874,0.0908,0.0651,0,0,0,0,0,0,-0.0252,-0.0317,-0.041,-0.0535,-0.07,-0.0826,-0.0887,-0.0941,-0.0992,-0.0959,-0.1004,-0.0786,-0.0634,-0.0324,-0.0067,0.0208,0.0311,0.0541,0.059,0.0626,0.0368,0.0137,0.0001,0,0,0,0,0,-0.0212,-0.0246,-0.033,-0.0477,-0.0595,-0.0741,-0.0858,-0.0901,-0.0947,-0.0928,-0.0881,-0.0692,-0.051,-0.0118,0.0174,0.0499,0.1011,0.098,0.1003,0.1053,0.0933,0.0911,0.0907,0.1036,0.1041,0.1043,0.1045,0,-0.0152,-0.0201,-0.0333,-0.0415,-0.0472,-0.0598,-0.0702,-0.0744,-0.0798,-0.0805,-0.0772,-0.057,-0.038,0.0048,0.0389,0.0845,0.0871,0.1064,0.1116,0.0985,0.0959,0.0945,0.0931,0.1072,0.107,0.1068,0.1066,0,-0.0121,-0.0159,-0.0264,-0.0372,-0.042,-0.0504,-0.0643,-0.0722,-0.0671,-0.0673,-0.0565,-0.0318,-0.0052,0.0331,0.078,0.0941,0.119,0.1184,0.1316,0.1301,0.0995,0.0969,0.1117,0.1107,0.1099,0.1091,0.1086,0,-0.0081,-0.015,-0.0221,-0.0269,-0.0397,-0.0432,-0.0554,-0.0557,-0.0541,-0.0585,-0.0285,-0.0205,0.0331,0.0561,0.0857,0.1041,0.1231,0.1151,0.1136,0.1324,0.1299,0.1379,0.1358,0.1545,0.1544,0.1542,0.1541,0,-0.0019,-0.0113,-0.0193,-0.0222,-0.0314,-0.0372,-0.0417,-0.0458,-0.0507,-0.0324,-0.0271,0.0049,0.0261,0.0577,0.0868,0.0898,0.1235,0.1276,0.1117,0.1094,0.1361,0.1343,0.1539,0.1538,0.1538,0.1537,0.1537,0,0.0022,-0.0023,-0.0118,-0.0214,-0.0237,-0.0287,-0.0364,-0.0401,-0.0354,-0.0304,-0.0126,0.0024,0.0317,0.0419,0.081,0.0729,0.09,0.1028,0.1038,0.0778,0.0684,0.102,0.1092,0.1088,0.1084,0.108,0.1077,0,0.0085,0.0007,0.0,-0.0091,-0.0134,-0.0125,-0.0184,-0.0199,-0.0184,-0.0146,0.0032,0.0107,0.0235,0.0341,0.0507,0.068,0.0817,0.0673,0.0959,0.0967,0.0695,0.0698,0.0802,0.1023,0.103,0.1034,0.1038,0,0.0148,0.0107,0.01,0.0061,0.0054,0.0029,-0.0012,-0.0039,-0.0074,0.0022,0.0048,0.0137,0.0271,0.0305,0.0402,0.0547,0.0731,0.0623,0.063,0.0739,0.1012,0.0674,0.0673,0.0773,0.0779,0.0783,0.1,0,0.0193,0.0167,0.0147,0.0126,0.0112,0.0089,0.0099,0.0093,0.012,0.0131,0.017,0.0268,0.0333,0.0324,0.0376,0.0493,0.0517,0.0515,0.0593,0.0604,0.0684,0.0713,0.038,0.0381,0.0382,0.0382,0,0,0.0261,0.0233,0.0264,0.0235,0.0218,0.0275,0.0232,0.0241,0.0258,0.0247,0.029,0.0342,0.0369,0.0405,0.0413,0.0383,0.0472,0.046,0.0553,0.0571,0.0589,0.0669,0.0696,0.0383,0.0384,0.0384,0.0384,0,0.0283,0.0299,0.0273,0.0271,0.0282,0.0294,0.0293,0.0311,0.032,0.0309,0.0346,0.0391,0.0378,0.0421,0.0433,0.039,0.0496,0.0366,0.0428,0.0552,0.0569,0.0586,0.0667,0.0691,0.0386,0.0385,0.0385,0,0.0332,0.0341,0.0333,0.0338,0.0345,0.0322,0.0377,0.0377,0.0357,0.0427,0.0409,0.0439,0.046,0.0453,0.0455,0.0484,0.0553,0.0473,0.0469,0.0538,0.0673,0.0689,0.0704,0.053,0.0531,0.0531,0,0,0.0352,0.0343,0.0358,0.0343,0.0345,0.037,0.0375,0.0396,0.0412,0.0423,0.045,0.047,0.0472,0.0493,0.0489,0.0496,0.0588,0.0491,0.0484,0.0479,0.0543,0.0675,0.0689,0.0533,0.0533,0.0533,0,0,0.036,0.0372,0.0387,0.0371,0.0378,0.0397,0.0393,0.0418,0.0435,0.0445,0.0489,0.0498,0.049,0.0515,0.0536,0.0521,0.0546,0.0543,0.0522,0.0514,0.0507,0.0588,0.0588,0,0,0,0,0,0.0386,0.0367,0.038,0.0381,0.039,0.0386,0.0389,0.0421,0.0448,0.0443,0.047,0.0509,0.0526,0.0546,0.0552,0.0547,0.0559,0.0555,0.055,0.0522,0.0513,0.0505,0,0,0,0,0,0,0.0386,0.0385,0.0381,0.0396,0.0399,0.0387,0.0427,0.0434,0.045,0.0456,0.05,0.0509,0.0537,0.0546,0.0551,0.0545,0.0586,0.0557,0.0554,0.055,0.0519,0.0511,0.0505,0,0,0,0,0,0.0387,0.0386,0.0392,0.0397,0.04,0.0434,0.0428,0.0435,0.0451,0.0489,0.0499,0.0475,0.0535,0.0543,0.0549,0.0542,0.0583,0.0585,0.0555,0.0552,0.0549,0.0515,0,0,0,0,0,0,0.0387,0.0394,0.0394,0.0396,0.041,0.0436,0.044,0.0435,0.0484,0.0493,0.0465,0.047,0.0533,0.054,0.0546,0.0538,0.058,0.0582,0.0583,0.0553,0.055,0.0548,0,0,0,0,0,0,0.0395,0.0396,0.0395,0.041,0.0414,0.0438,0.0441,0.0455,0.0485,0.0459,0.0463,0.0467,0.0534,0.0537,0.0542,0.0561,0.0578,0.058,0.0581,0.0582,0.0551,0.0549,0,0,0,0,0,0,0.0396,0.0397,0.041,0.0413,0.0417,0.0446,0.0452,0.0466,0.0479,0.0457,0.0483,0.0485,0.0531,0.0536,0.054,0.0556,0.0559,0.0578,0.058,0.058,0.0581,0,0,0,0,0,0,0,0.0397,0.0382,0.038,0.0415,0.0419,0.0418,0.0419,0.042,0.048,0.0481,0.0483,0.0484,0.0569,0.0571,0.0572,0.0552,0,0,0.0578,0.0579,0,0,0,0,0,0,0,0,0.0383,0.0382,0.038,0.038,0.0381,0.0418,0.0419,0.0419,0.048,0.0481,0.0483,0.0484,0.0569,0.0571,0.0572,0,0,0,0,0,0,0,0,0,0,0,0,0,0,0,0.038,0.038,0,0.0418,0.0419,0.0419,0.048,0.0481,0.0482,0.0483,0.057,0.0571,0.0572,0,0,0,0,0,0,0,0,0,0,0,0,0,0,0,0,0,0,0,0,0,0,0,0,0,0,0,0,0,0,0,0,0,0,0,0,0,0,0,0,0,0,0,0,0,0,0,0,0,0,0,0,0,0,0,0,0,0,0,0,0,0,0,0,0,0,0,0,0]}]]]